CHX29 EDDH-EDDH

Flight info

Callsign CHX29
Flight time 0h 2m
Altitude
Route
Aircraft EC35

Departure

Time 2026-04-25 12:16
Airport Hamburg Helmut Schmidt Airport (EDDH)

Arrival

Time 2026-04-25 12:18
Airport Hamburg Helmut Schmidt Airport (EDDH)
Time Latitude Longitude Altitude Speed Heading
2026-04-25 12:15 53.62530 9.99322 47 ft 0 kts 221°
2026-04-25 12:15 53.62531 9.99315 71 ft 4 kts 218°
2026-04-25 12:16 53.62387 9.99230 393 ft 70 kts 195°
2026-04-25 12:16 53.61749 9.99064 549 ft 108 kts 187°
2026-04-25 12:16 53.60976 9.98948 802 ft 112 kts 191°
2026-04-25 12:16 53.60145 9.98680 668 ft 108 kts 198°
2026-04-25 12:17 53.59312 9.98405 573 ft 124 kts 182°
2026-04-25 12:17 53.58451 9.98287 722 ft 129 kts 188°
2026-04-25 12:17 53.57571 9.97981 883 ft 126 kts 195°
2026-04-25 12:17 53.56845 9.97657 961 ft 102 kts 197°
2026-04-25 12:18 53.56083 9.97196 978 ft 125 kts 197°
2026-04-25 12:18 53.55181 9.96931 711 ft 133 kts 183°
2026-04-25 12:18 53.54288 9.96872 241 ft 113 kts 172°
2026-04-25 12:18 53.53881 9.96934 183 ft 8 kts
2026-04-25 12:19 53.54070 9.97124 29 ft 0 kts
2026-04-25 12:19 53.54070 9.97125 29 ft 0 kts 354°
2026-04-25 12:20 53.54080 9.97125 213 ft 7 kts
2026-04-25 12:21 53.54278 9.97230 413 ft 78 kts 32°
2026-04-25 12:21 53.54788 9.97900 567 ft 105 kts 40°
2026-04-25 12:21 53.55321 9.98837 695 ft 114 kts 47°
2026-04-25 12:21 53.55859 9.99936 637 ft 127 kts 49°
2026-04-25 12:22 53.56421 10.01109 565 ft 129 kts 49°
2026-04-25 12:22 53.56973 10.02291 511 ft 128 kts 47°
2026-04-25 12:22 53.57542 10.03472 464 ft 126 kts 50°
2026-04-25 12:22 53.58089 10.04584 538 ft 122 kts 48°
2026-04-25 12:23 53.58631 10.05678 568 ft 120 kts 46°
2026-04-25 12:23 53.59107 10.06695 492 ft 95 kts 41°
2026-04-25 12:23 53.59382 10.07275 383 ft 45 kts 39°
2026-04-25 12:23 53.59600 10.07610 204 ft 29 kts 45°
2026-04-25 12:24 53.59688 10.07773 75 ft 9 kts 66°
2026-04-25 12:24 53.59691 10.07782 68 ft 0 kts 64°
2026-04-25 12:27 53.59687 10.07778 146 ft 0 kts 274°
2026-04-25 12:27 53.59664 10.07633 331 ft 47 kts 253°
2026-04-25 12:27 53.59659 10.07129 700 ft 55 kts 277°
2026-04-25 12:27 53.59656 10.06144 831 ft 102 kts 267°
2026-04-25 12:28 53.59609 10.04813 892 ft 123 kts 265°
2026-04-25 12:28 53.59545 10.03343 953 ft 132 kts 264°
2026-04-25 12:28 53.59430 10.01775 953 ft 135 kts 259°
2026-04-25 12:28 53.59245 10.00235 1016 ft 136 kts 254°
2026-04-25 12:29 53.58963 9.98683 937 ft 140 kts 249°
2026-04-25 12:29 53.58657 9.97131 887 ft 137 kts 252°
2026-04-25 12:29 53.58405 9.95622 989 ft 133 kts 252°
2026-04-25 12:29 53.58068 9.94153 1046 ft 134 kts 243°
2026-04-25 12:30 53.57766 9.93251 1093 ft 133 kts 238°
2026-04-25 12:30 53.57076 9.91502 962 ft 133 kts 232°
2026-04-25 12:30 53.56599 9.90261 904 ft 117 kts 237°
2026-04-25 12:30 53.56251 9.89139 1013 ft 105 kts 240°
2026-04-25 12:31 53.55813 9.88108 983 ft 112 kts 230°
2026-04-25 12:31 53.55276 9.87068 789 ft 123 kts 223°
2026-04-25 12:31 53.54670 9.85968 409 ft 132 kts 223°
2026-04-25 12:31 53.54219 9.84993 60 ft 63 kts 219°
2026-04-25 12:32 53.54010 9.84535 86 ft 48 kts 229°
2026-04-25 12:32 53.53762 9.84055 22 ft 52 kts 230°
2026-04-25 12:32 53.53665 9.83792 48 ft 23 kts 284°
2026-04-25 12:32 53.53727 9.83699 32 ft 12 kts 333°
2026-04-25 12:33 53.53842 9.83598 21 ft 2 kts 237°
2026-04-25 12:33 53.53834 9.83593 49 ft 12 kts 237°
2026-04-25 12:33 53.53849 9.83152 211 ft 76 kts 302°
2026-04-25 12:34 53.54178 9.82274 109 ft 86 kts 302°
2026-04-25 12:34 53.54422 9.81997 27 ft 6 kts 48°
2026-04-25 12:34 53.54423 9.81994 19 ft 0 kts 50°
2026-04-25 12:35 53.54421 9.81994 19 ft 0 kts 45°
2026-04-25 12:36 53.54422 9.81996 180 ft 3 kts 53°
2026-04-25 12:36 53.54577 9.82288 485 ft 48 kts 50°
2026-04-25 12:36 53.54880 9.82928 490 ft 86 kts 52°
2026-04-25 12:36 53.55264 9.83796 687 ft 105 kts 51°
2026-04-25 12:37 53.55707 9.84838 916 ft 109 kts 58°
2026-04-25 12:37 53.56153 9.85947 1049 ft 119 kts 52°
2026-04-25 12:37 53.56666 9.87057 1201 ft 122 kts 49°
2026-04-25 12:37 53.57251 9.88186 1207 ft 132 kts 44°
2026-04-25 12:38 53.57836 9.89361 1241 ft 133 kts 48°
2026-04-25 12:38 53.58443 9.90577 1159 ft 139 kts 47°
2026-04-25 12:38 53.59055 9.91814 1120 ft 140 kts 45°
2026-04-25 12:38 53.59651 9.93059 1123 ft 137 kts 48°
2026-04-25 12:39 53.60272 9.94277 1114 ft 138 kts 42°
2026-04-25 12:39 53.60940 9.95419 696 ft 133 kts 43°
2026-04-25 12:39 53.61535 9.96570 450 ft 128 kts 44°
2026-04-25 12:39 53.62052 9.97702 247 ft 108 kts 44°
2026-04-25 12:40 53.62368 9.98289 179 ft 31 kts 14°
2026-04-25 12:40 53.62524 9.98459 92 ft 24 kts 353°
2026-04-25 12:40 53.62558 9.98467 44 ft 0 kts 146°
2026-04-25 12:40 53.62551 9.98461 45 ft 6 kts 135°
2026-04-25 12:41 53.62511 9.98666 55 ft 26 kts 60°
2026-04-25 12:41 53.62545 9.98949 53 ft 23 kts 72°
2026-04-25 12:41 53.62572 9.99188 55 ft 18 kts 71°
2026-04-25 12:41 53.62573 9.99331 59 ft 11 kts 166°
2026-04-25 12:42 53.62528 9.99349 46 ft 0 kts